Temperature
11 10 11 11 11 11 11 11 11 11 11 11 10 10 10 10 10 10 10 10 10 10 10 10 10 10 10 10 10 10 9 9 9 9 8 8 8 8 8 8 8 9 9
10 10 10 11 11 11 11 11 11 11 10 10 10 10 10 10 10 10 10 10 10 10 10 10 10 10 10 9 9 9 9 9 9 8 7 7 7 7 8 8 8 8 8
10 10 10 10 10 11 11 11 10 10 10 10 10 10 9 9 9 9 9 9 9 9 9 9 9 9 9 9 9 9 9 9 8 8 8 7 8 7 7 7 8 8 8
9 9 9 9 10 10 10 10 10 10 10 10 10 10 9 9 9 9 9 9 9 9 9 9 9 9 9 9 9 9 9 8 8 8 8 8 8 7 6 7 7 7 7
9 9 9 9 9 10 10 10 10 10 10 9 9 9 9 9 9 9 9 8 8 8 9 9 9 9 8 8 8 8 8 8 8 8 7 7 7 8 7 6 7 7 7
8 8 8 9 9 9 9 9 9 9 9 9 9 9 9 9 8 8 8 8 8 8 8 8 8 8 8 8 8 8 8 8 7 7 7 7 7 7 7 7 7 7 7
8 8 8 8 8 8 9 9 9 9 9 9 9 9 9 8 8 8 8 8 8 8 8 8 8 8 8 8 8 7 7 7 7 7 7 7 7 7 7 7 7 6 6
7 7 7 8 8 8 8 8 8 8 9 9 9 8 8 8 8 8 8 8 7 7 7 7 7 7 7 7 7 7 7 7 7 7 7 7 7 7 7 7 7 6 6
6 7 7 7 8 8 8 8 8 8 8 8 8 8 8 8 8 8 8 7 7 7 7 7 7 7 7 7 7 7 6 6 6 6 6 6 6 6 6 6 6 6 5
6 6 6 7 8 8 8 8 8 8 8 8 8 8 7 7 7 7 7 7 7 7 7 7 7 6 6 6 6 6 6 6 6 6 6 6 6 6 6 6 6 6 5
5 5 6 6 7 7 7 7 7 7 7 8 7 7 7 7 7 7 7 7 7 6 6 6 6 6 6 5 5 5 5 5 6 6 5 5 5 5 5 5 5 5 5
4 5 5 5 6 6 7 7 7 7 7 7 7 7 7 7 7 6 6 6 6 6 6 6 6 5 5 5 5 5 5 5 5 5 5 5 5 5 5 5 5 5 5
4 4 4 5 5 5 6 6 6 6 7 7 7 6 6 6 6 6 6 6 6 6 5 5 5 5 5 5 5 5 5 5 5 5 5 5 4 4 4 4 4 4 4
3 3 3 4 4 5 5 5 6 6 6 6 6 6 6 6 6 6 5 5 5 5 5 5 5 4 4 4 4 4 4 4 4 4 4 4 4 4 4 4 4 4 4
2 2 3 3 3 4 4 5 5 5 5 5 5 5 5 5 5 5 5 5 5 5 5 4 4 4 4 4 4 4 4 4 4 4 4 4 4 4 4 4 4 4 4
2 2 2 2 3 4 4 4 5 5 5 5 5 5 5 5 5 5 4 4 4 4 4 4 4 4 4 4 4 4 4 4 4 4 4 4 4 4 3 3 3 3 3
1 1 2 2 3 3 3 4 4 4 4 4 4 4 4 4 4 4 4 4 4 4 4 4 4 4 4 4 4 4 3 3 3 3 3 3 3 3 3 3 3 3 3
0 0 1 2 2 2 3 3 3 3 3 3 3 4 4 4 4 3 3 3 3 3 4 4 4 4 3 3 3 3 3 3 3 3 3 3 3 3 3 2 2 2 2
-0 0 1 1 2 2 2 2 2 3 3 3 3 3 3 3 3 3 3 3 3 3 3 3 3 3 3 3 3 3 3 3 2 2 2 2 2 3 2 2 2 2 2
-0 0 1 1 1 1 2 2 2 2 2 2 2 2 2 2 2 3 2 2 2 2 2 2 3 3 3 3 3 3 2 2 2 2 2 2 2 2 2 1 1 1 1
-1 -0 0 0 0 1 1 1 1 1 2 2 2 2 2 2 2 2 2 2 2 2 2 2 2 2 2 2 2 2 2 2 1 1 1 2 1 1 1 1 1 1 1
-1 -1 -1 -1 -0 -0 -0 0 1 1 1 1 1 1 1 1 1 1 1 1 1 1 1 1 1 1 1 1 1 1 1 1 1 1 1 1 1 1 1 0 0 0 0
-2 -2 -2 -1 -1 -1 -1 -1 0 0 0 0 1 1 1 1 1 1 1 1 1 1 0 1 1 1 0 1 1 1 1 0 0 0 0 0 0 0 -0 -0 -0 -0 -0
-3 -3 -2 -2 -2 -2 -1 -1 -1 -1 -0 -0 -0 0 0 0 0 0 0 0 0 -0 -0 -0 -0 -0 -0 -0 -0 -0 -0 -0 -0 -1 -1 -1 -1 -1 -1 -1 -1 -1 -1
-4 -3 -3 -3 -3 -2 -2 -2 -1 -1 -1 -1 -1 -1 -1 -0 -1 -1 -1 -1 -1 -1 -1 -1 -1 -1 -1 -1 -1 -1 -1 -1 -1 -1 -1 -1 -1 -2 -2 -2 -1 -2 -2
-4 -4 -4 -4 -3 -3 -3 -2 -2 -2 -1 -1 -1 -1 -1 -1 -1 -1 -1 -1 -1 -1 -1 -1 -1 -1 -1 -1 -1 -1 -1 -1 -1 -2 -2 -2 -2 -2 -2 -2 -2 -2 -2
Wind_Speed
10 8 8 8 8 8 9 9 9 10 8 7 7 6 6 6 6 6 8 9 9 9 7 5 6 7 6 7 7 6 6 5 5 4 2 1 1 1 2 2 2 2 2
10 8 8 8 9 9 10 10 10 10 10 8 7 6 6 5 6 5 7 8 9 9 8 7 6 7 7 8 8 7 6 5 5 4 3 3 3 2 2 2 2 2 2
10 9 9 9 9 9 10 9 10 10 10 9 6 5 5 4 5 6 6 7 8 9 9 8 7 7 7 7 9 9 9 7 6 5 3 3 4 3 3 4 3 3 3
9 9 9 9 9 9 9 9 10 9 9 9 9 10 8 8 8 6 6 6 8 9 9 9 8 8 7 8 8 9 8 8 7 5 3 2 1 3 3 3 4 4 4
8 8 8 8 8 8 8 8 9 9 9 10 10 10 9 8 6 6 7 7 6 8 8 8 8 8 7 8 9 9 8 8 8 6 4 3 1 2 3 3 4 4 4
6 6 6 6 6 6 6 7 8 9 9 10 10 11 10 9 8 8 8 7 6 6 8 8 8 8 7 8 9 9 10 8 8 7 6 5 4 4 3 3 4 4 4
4 5 5 6 5 6 6 7 8 8 8 9 10 10 10 10 10 9 9 8 7 7 8 8 8 8 8 8 8 8 9 9 9 8 7 6 5 3 3 3 2 3 3
2 3 4 5 5 6 6 7 8 8 8 8 9 9 9 8 7 9 8 8 7 7 8 9 8 8 8 8 8 7 8 8 8 8 8 6 5 4 4 3 3 2 3
2 2 2 3 4 5 5 6 7 7 8 8 8 8 9 8 8 8 8 7 7 7 9 9 9 9 8 9 9 7 9 8 8 8 8 6 5 5 4 4 4 4 4
1 0 0 1 2 3 4 5 6 7 7 8 8 7 8 8 8 7 8 8 8 8 9 9 9 9 8 9 9 8 8 9 8 7 8 7 5 5 5 4 4 4 5
0 1 1 1 1 1 2 3 4 5 6 7 7 7 7 7 7 7 8 8 7 8 9 9 9 9 10 9 9 9 9 10 9 8 8 8 7 6 5 5 5 5 4
1 2 2 2 1 1 1 2 3 4 5 5 6 7 6 6 7 7 7 8 8 8 8 9 9 9 10 10 10 10 10 10 10 9 9 9 7 7 6 5 6 5 5
2 2 2 2 2 2 2 2 2 3 3 4 5 6 6 7 7 7 7 8 8 8 8 9 9 10 10 10 10 10 10 10 10 10 10 9 9 8 7 7 6 5 4
3 3 2 2 2 2 2 2 2 2 3 3 4 5 6 6 7 6 6 7 7 8 8 8 9 9 10 10 10 10 10 10 10 10 9 9 9 9 8 7 8 6 5
4 3 3 3 3 3 3 3 3 3 3 4 4 5 5 5 5 6 6 6 6 7 7 8 8 8 8 9 10 10 10 10 10 9 9 9 9 9 9 7 8 7 6
6 5 5 4 4 4 4 3 3 3 3 3 4 4 4 4 5 5 6 6 6 6 7 8 8 8 7 8 10 10 9 10 10 9 9 8 9 9 9 9 9 9 8
6 6 6 5 5 4 4 4 4 3 3 3 3 3 4 4 4 4 5 5 6 6 6 7 8 8 8 9 10 10 9 9 9 9 8 6 7 8 8 8 9 9 9
7 7 6 6 5 5 4 4 3 2 3 3 3 3 3 4 3 4 4 4 4 5 5 6 7 7 7 8 9 10 9 9 9 9 9 8 8 8 8 7 7 8 8
7 7 6 5 5 4 3 2 2 1 2 3 3 3 3 3 3 4 4 4 4 4 4 4 5 6 6 7 8 8 7 7 8 8 8 9 8 8 9 8 7 7 6
6 6 5 4 4 4 3 2 2 1 2 3 3 2 2 3 3 4 4 3 3 3 3 4 4 5 5 6 8 8 6 6 6 6 7 8 8 9 9 8 8 7 6
6 5 4 4 4 3 2 2 2 2 2 2 1 1 2 2 3 3 3 3 3 3 3 3 3 4 4 5 6 7 6 6 5 5 5 5 7 8 9 8 7 7 5
6 6 5 5 5 4 2 2 2 3 2 1 0 0 1 1 1 2 2 3 3 3 3 3 3 3 3 4 5 7 6 5 6 5 5 4 6 6 6 5 5 5 4
6 6 5 5 5 5 4 3 4 3 2 2 1 1 0 0 1 2 2 2 3 3 3 3 3 2 2 3 4 6 6 6 4 4 4 4 5 5 4 5 5 5 4
7 6 6 6 6 6 6 5 4 3 2 2 1 1 0 0 0 1 1 2 2 3 3 3 3 3 2 2 3 3 4 4 4 3 4 5 5 4 3 4 4 3 4
7 7 6 6 7 7 6 5 4 3 2 2 2 1 1 0 0 0 0 1 2 2 3 3 3 3 3 4 4 4 4 4 4 4 3 3 3 3 3 3 3 3 3
7 7 7 7 7 7 7 6 5 3 2 2 2 1 1 0 0 0 1 1 1 1 2 3 3 3 3 4 5 5 5 5 6 4 4 4 4 4 4 4 3 3 3
Wind_Direction
239 228 217 213 207 205 203 201 198 194 187 183 185 189 195 194 195 194 194 191 190 190 189 184 180 183 184 182 179 171 167 165 153 142 137 130 181 212 204 196 187 176 172
235 221 212 207 205 201 200 199 198 192 190 191 188 190 192 199 200 196 199 197 192 191 192 188 186 188 187 184 182 173 172 174 180 181 173 187 205 216 222 226 220 200 177
230 219 212 209 203 201 199 197 196 194 192 188 181 173 182 194 198 201 203 204 200 195 194 193 190 193 190 189 190 186 182 181 193 198 195 196 209 199 208 220 215 206 196
228 220 212 209 205 203 197 197 196 193 190 186 187 188 195 201 205 201 200 201 205 202 197 196 195 197 197 194 195 194 193 187 191 202 231 259 209 200 196 209 218 221 218
223 215 210 209 205 198 192 193 193 194 192 191 194 199 204 206 202 197 196 198 204 207 203 200 198 200 202 200 198 196 197 199 198 198 203 207 219 227 222 216 212 219 226
209 203 198 198 199 194 191 191 192 195 194 195 197 202 205 203 200 201 198 200 203 206 207 203 201 201 203 203 203 199 199 203 205 204 207 207 208 216 224 229 213 220 220
189 191 188 190 193 195 195 194 194 195 195 196 201 204 208 207 208 207 206 204 206 208 208 204 203 203 204 205 205 204 204 206 207 207 212 216 220 215 220 212 214 231 231
197 192 194 194 195 198 198 196 197 198 196 199 204 207 207 208 212 213 211 209 212 212 209 205 206 206 203 204 205 206 208 208 211 213 213 214 214 208 212 210 202 220 237
190 196 195 200 200 201 205 203 200 201 202 203 204 206 206 206 208 209 211 211 212 211 209 206 205 207 206 206 205 209 209 208 210 212 213 214 212 209 217 215 214 219 234
170 205 231 244 221 212 212 208 207 207 206 204 205 205 206 207 205 206 208 207 207 208 206 206 204 205 207 208 208 210 210 209 211 209 210 215 213 210 212 212 221 231 238
203 353 350 345 312 232 211 210 211 211 209 207 206 204 205 206 205 207 208 207 204 204 208 207 204 205 206 207 208 209 208 210 211 210 211 213 212 210 212 213 217 224 229
344 357 2 360 350 329 260 220 214 214 212 207 205 204 203 202 205 209 209 205 204 204 206 206 206 208 208 208 208 208 209 210 211 211 211 213 209 212 212 213 217 222 225
343 354 359 353 337 318 304 274 233 223 216 205 202 203 204 205 208 210 209 206 204 204 204 204 207 209 210 210 211 212 212 214 214 212 211 210 207 211 213 215 219 222 225
348 343 332 328 326 319 310 297 274 246 221 207 205 207 210 211 211 209 209 207 204 203 204 207 210 213 212 211 211 212 213 215 215 214 213 211 211 213 212 215 218 216 217
339 331 321 319 322 318 309 295 281 261 228 213 211 216 215 212 209 206 205 204 203 203 204 207 211 215 214 213 211 211 214 214 213 214 215 215 216 220 216 216 215 211 213
326 321 318 317 315 311 303 293 281 267 239 223 222 218 213 209 206 206 203 200 200 200 200 205 208 212 215 208 207 209 211 212 211 213 215 215 214 216 218 220 218 215 213
318 314 311 310 308 302 296 286 279 269 243 232 229 221 214 210 208 202 198 202 203 202 203 205 205 210 212 201 201 205 210 212 214 213 212 212 215 212 218 217 217 222 225
315 312 310 309 307 306 301 290 275 260 240 233 230 222 215 209 204 198 199 203 207 205 206 206 207 211 209 200 201 200 210 214 215 215 214 213 211 211 213 215 220 225 226
314 311 308 308 308 309 307 296 283 263 241 242 241 230 214 204 198 202 207 203 202 205 208 208 207 209 209 199 197 197 210 215 219 219 217 215 214 210 207 210 216 224 231
325 322 322 326 326 328 326 311 297 273 258 252 242 228 213 205 202 206 203 200 195 201 201 204 211 213 214 199 197 198 207 212 216 218 219 217 216 211 205 211 213 219 224
339 340 341 343 340 341 343 333 329 315 306 288 253 216 206 205 205 203 193 183 185 188 198 203 208 214 217 202 197 201 209 210 209 212 216 214 205 211 210 216 218 216 213
350 353 355 351 350 353 357 350 336 336 339 335 314 224 217 212 195 187 183 177 179 184 196 199 203 214 215 212 205 203 209 211 208 213 212 205 193 203 209 215 211 200 198
354 356 358 356 358 358 355 348 341 345 351 2 3 355 341 240 196 183 176 175 182 191 200 203 206 216 219 215 206 206 209 212 215 214 201 193 186 193 202 199 197 200 203
356 356 359 359 357 357 357 351 343 347 360 9 3 6 76 102 198 186 183 188 193 202 208 211 213 215 219 218 212 211 210 206 211 205 185 181 182 194 202 197 201 212 215
355 356 357 354 353 354 354 351 347 353 9 10 8 6 17 67 63 20 267 236 235 228 218 220 219 213 223 226 217 209 209 210 203 189 192 194 194 199 203 208 210 212 210
356 358 359 357 353 353 353 351 351 352 4 9 2 356 348 10 91 77 16 13 289 294 265 261 250 246 242 230 222 219 210 195 181 185 200 202 202 205 209 210 212 214 216
Height
1469 1470 1472 1474 1476 1477 1479 1482 1484 1486 1489 1491 1493 1495 1498 1500 1502 1504 1506 1508 1510 1512 1514 1515 1517 1519 1521 1522 1524 1526 1528 1529 1530 1532 1534 1535 1536 1536 1537 1538 1538 1539 1539
1464 1465 1467 1469 1471 1473 1475 1477 1480 1482 1485 1487 1490 1492 1495 1497 1499 1500 1502 1504 1506 1508 1510 1511 1513 1515 1517 1519 1521 1522 1524 1525 1527 1529 1531 1533 1535 1534 1534 1535 1535 1536 1537
1459 1460 1462 1464 1466 1468 1470 1473 1476 1478 1481 1483 1486 1488 1491 1492 1494 1496 1497 1499 1501 1503 1505 1507 1509 1512 1513 1515 1517 1519 1520 1522 1524 1526 1528 1530 1530 1531 1531 1531 1532 1533 1534
1454 1456 1457 1460 1462 1464 1467 1469 1472 1474 1477 1479 1481 1484 1485 1487 1489 1491 1493 1495 1497 1499 1501 1503 1505 1508 1510 1511 1513 1515 1516 1518 1519 1522 1524 1526 1526 1527 1527 1528 1529 1530 1530
1450 1452 1453 1455 1458 1461 1463 1465 1468 1470 1473 1475 1477 1479 1481 1483 1485 1487 1489 1490 1493 1495 1497 1499 1501 1503 1505 1507 1509 1511 1513 1514 1516 1517 1519 1521 1522 1523 1524 1524 1525 1526 1527
1447 1449 1450 1452 1455 1457 1459 1461 1463 1466 1468 1470 1473 1475 1477 1479 1481 1483 1484 1487 1489 1490 1493 1495 1496 1499 1501 1503 1505 1506 1508 1510 1512 1514 1515 1517 1518 1519 1521 1521 1521 1522 1523
1444 1446 1447 1449 1451 1453 1455 1457 1459 1462 1464 1466 1468 1470 1473 1475 1476 1478 1480 1482 1484 1486 1488 1490 1492 1494 1496 1498 1500 1502 1504 1506 1507 1509 1511 1513 1515 1516 1518 1518 1518 1519 1519
1442 1443 1444 1446 1448 1450 1452 1454 1456 1458 1460 1462 1464 1466 1468 1470 1472 1474 1475 1477 1479 1481 1483 1485 1487 1489 1492 1494 1496 1498 1500 1501 1503 1505 1507 1509 1510 1512 1514 1515 1516 1516 1516
1441 1442 1443 1444 1445 1447 1448 1450 1452 1454 1456 1458 1460 1462 1464 1466 1467 1469 1471 1472 1474 1476 1479 1480 1482 1485 1487 1489 1491 1493 1495 1497 1499 1501 1502 1504 1506 1508 1509 1511 1513 1514 1513
1440 1441 1441 1442 1443 1444 1445 1447 1449 1451 1453 1454 1456 1457 1459 1461 1463 1464 1466 1467 1469 1472 1473 1475 1477 1480 1482 1484 1486 1488 1490 1492 1494 1496 1498 1500 1501 1503 1505 1506 1508 1509 1510
1439 1439 1439 1440 1441 1442 1443 1444 1446 1447 1449 1450 1452 1453 1455 1457 1458 1460 1461 1463 1465 1467 1469 1471 1472 1475 1477 1480 1481 1483 1485 1487 1489 1491 1493 1495 1497 1498 1500 1501 1503 1504 1506
1439 1439 1438 1438 1438 1439 1440 1441 1442 1444 1445 1446 1448 1449 1451 1452 1454 1455 1457 1459 1460 1462 1464 1466 1468 1470 1472 1474 1476 1478 1480 1482 1484 1486 1488 1490 1492 1493 1495 1496 1498 1499 1500
1438 1437 1437 1437 1437 1437 1437 1438 1439 1440 1442 1443 1444 1445 1446 1448 1449 1451 1452 1454 1455 1457 1459 1461 1463 1465 1467 1469 1471 1473 1475 1477 1479 1481 1483 1485 1487 1488 1490 1492 1493 1494 1495
1436 1436 1436 1435 1435 1435 1435 1436 1437 1438 1438 1439 1440 1441 1443 1444 1445 1447 1448 1450 1451 1453 1455 1457 1459 1461 1463 1465 1467 1468 1470 1472 1475 1476 1478 1480 1482 1484 1485 1487 1489 1490 1490
1435 1435 1434 1433 1433 1433 1433 1433 1433 1434 1435 1436 1437 1438 1439 1440 1441 1442 1444 1445 1447 1448 1450 1453 1454 1456 1458 1460 1461 1463 1465 1468 1470 1472 1474 1475 1477 1479 1480 1482 1484 1485 1485
1434 1433 1432 1431 1431 1430 1430 1430 1430 1431 1432 1432 1433 1434 1435 1436 1437 1438 1440 1441 1442 1444 1446 1448 1450 1451 1453 1455 1457 1459 1461 1463 1465 1467 1468 1470 1472 1474 1475 1477 1479 1480 1481
1432 1431 1430 1429 1428 1428 1428 1428 1428 1428 1428 1429 1430 1431 1431 1432 1433 1435 1436 1437 1438 1440 1442 1443 1445 1447 1449 1450 1452 1454 1456 1458 1460 1462 1464 1465 1467 1469 1470 1472 1473 1475 1476
1431 1429 1428 1427 1426 1426 1426 1425 1425 1425 1425 1425 1426 1427 1428 1429 1430 1431 1432 1433 1435 1436 1437 1439 1441 1442 1444 1446 1448 1450 1452 1454 1455 1457 1459 1460 1461 1463 1465 1467 1468 1469 1470
1429 1427 1426 1425 1424 1423 1423 1422 1422 1421 1421 1422 1422 1423 1424 1425 1426 1427 1428 1430 1431 1433 1434 1435 1436 1438 1440 1442 1443 1445 1447 1449 1450 1452 1454 1455 1457 1459 1461 1462 1463 1464 1465
1426 1425 1423 1422 1421 1420 1419 1419 1418 1418 1418 1419 1419 1420 1421 1422 1422 1423 1425 1426 1428 1429 1430 1431 1432 1434 1435 1437 1439 1441 1443 1444 1446 1447 1449 1451 1452 1454 1455 1457 1458 1459 1459
1424 1423 1421 1420 1419 1418 1417 1417 1416 1416 1416 1416 1417 1417 1418 1419 1420 1421 1422 1423 1424 1425 1426 1427 1428 1430 1431 1433 1435 1436 1438 1440 1441 1443 1444 1445 1447 1449 1451 1452 1453 1454 1455
1423 1421 1420 1419 1418 1417 1416 1415 1415 1414 1414 1414 1415 1415 1416 1416 1417 1418 1419 1420 1421 1422 1422 1424 1424 1426 1427 1429 1430 1432 1434 1436 1437 1438 1439 1441 1443 1445 1446 1447 1448 1450 1450
1422 1420 1419 1418 1417 1416 1415 1414 1413 1413 1413 1413 1413 1413 1414 1415 1415 1416 1416 1417 1418 1418 1419 1420 1421 1422 1424 1425 1427 1428 1430 1432 1433 1434 1435 1437 1439 1440 1442 1443 1444 1445 1446
1421 1420 1418 1416 1416 1415 1414 1413 1413 1412 1412 1412 1412 1412 1412 1413 1413 1414 1414 1415 1415 1415 1416 1417 1418 1419 1420 1421 1423 1424 1426 1428 1429 1430 1432 1433 1435 1436 1438 1439 1440 1441 1442
1421 1420 1418 1416 1415 1414 1413 1412 1412 1411 1411 1410 1410 1410 1411 1411 1411 1411 1412 1412 1413 1413 1414 1414 1415 1416 1416 1417 1419 1420 1422 1424 1425 1427 1429 1430 1431 1432 1434 1435 1436 1436 1437
1422 1420 1418 1417 1415 1414 1413 1412 1411 1410 1409 1409 1409 1409 1409 1409 1409 1409 1410 1410 1411 1411 1412 1412 1413 1413 1414 1415 1416 1417 1418 1420 1422 1423 1424 1426 1427 1428 1429 1430 1431 1432 1433